Weather reports worldwide

Advertisment
Lindenberg, Germany (10393): temperature & dewpoint: 11.06.2019 20:00:00 - 17.06.2019 20:00:00 (CEST)Lindenberg, Germany (10393): temperature 5cm & temperature -5cm: 11.06.2019 20:00:00 - 17.06.2019 20:00:00 (CEST)Lindenberg, Germany (10393): temperature -20cm & temperature -100cm: 11.06.2019 20:00:00 - 17.06.2019 20:00:00 (CEST)Lindenberg, Germany (10393): wind speed & gusts: 11.06.2019 20:00:00 - 17.06.2019 20:00:00 (CEST)Lindenberg, Germany (10393): wind direction: 11.06.2019 20:00:00 - 17.06.2019 20:00:00 (CEST)Lindenberg, Germany (10393): reduced air pressure: 11.06.2019 20:00:00 - 17.06.2019 20:00:00 (CEST)Lindenberg, Germany (10393): visibility: 11.06.2019 20:00:00 - 17.06.2019 20:00:00 (CEST)Lindenberg, Germany (10393): sunshine duration: 11.06.2019 20:00:00 - 17.06.2019 20:00:00 (CEST)Lindenberg, Germany (10393): precipitation: 11.06.2019 20:00:00 - 17.06.2019 20:00:00 (CEST)
Date & Time tt [°C] td [°C] tt 5cm [°C] tt -5cm [°C] tt -20cm [°C] tt -100cm [°C] ff [km/h] ff [kn] fx [km/h] fx [kn] dd ppp [hPa] vv [km] sd [min] rr [mm]
17.06.2019 20:00:00 - - - - - - - - - - - - - - -
17.06.2019 19:00:00 24,8 11,8 26,7 32,6 29,0 20,5 5 3 10 6 ENE 1019,8 60 3 0,0
17.06.2019 18:00:00 25,1 12,1 27,4 34,4 28,9 20,5 3 2 14 8 ESE 1020,1 60 8 0,0
17.06.2019 17:00:00 26,3 9,8 30,8 37,3 28,4 20,5 7 4 15 8 WSW 1020,5 60 33 0,0
17.06.2019 16:00:00 25,3 9,8 29,6 37,4 27,7 20,5 4 2 17 9 SW 1020,9 50 21 0,0
17.06.2019 15:00:00 25,9 10,5 33,8 39,7 26,6 20,5 5 3 16 8 ESE 1021,3 50 49 0,0
17.06.2019 14:00:00 24,6 10,5 34,5 39,4 25,4 20,5 5 3 16 8 SE 1021,6 50 58 0,0
17.06.2019 13:00:00 24,3 10,8 32,0 36,1 24,3 20,5 9 5 14 8 NNE 1022,0 50 48 0,0
17.06.2019 12:00:00 22,2 11,0 26,5 32,3 23,2 20,5 5 3 17 9 NNW 1022,3 50 52 0,0
17.06.2019 11:00:00 22,5 10,9 28,6 30,6 22,4 20,5 6 4 15 8 W 1022,4 50 60 0,0
17.06.2019 10:00:00 20,5 11,5 24,2 25,8 21,9 20,5 8 5 18 10 S 1022,8 50 52 0,0
17.06.2019 09:00:00 18,1 12,7 20,4 21,1 21,8 20,5 6 4 14 7 SSE 1023,1 45 1 0,1
17.06.2019 08:00:00 16,4 12,8 17,0 20,0 21,9 20,5 5 3 10 5 SSE 1023,3 40 0 0,0
17.06.2019 07:00:00 16,4 12,8 17,1 19,7 21,9 20,5 4 2 11 6 SE 1023,2 30 29 0,0
17.06.2019 06:00:00 14,7 12,6 14,8 18,1 22,2 20,5 6 3 10 5 E 1022,7 25 0 0,0
17.06.2019 05:00:00 14,2 12,6 13,2 17,5 22,6 20,5 5 3 6 4 N 1022,6 25 0 0,0
17.06.2019 04:00:00 13,4 11,9 11,1 17,4 23,0 20,5 4 2 9 5 NNW 1022,3 30 0 0,0
17.06.2019 03:00:00 13,8 12,3 11,6 18,0 23,5 20,5 5 3 9 5 W 1022,3 40 0 0,0
17.06.2019 02:00:00 14,5 12,3 12,9 18,5 24,0 20,5 4 2 6 3 N 1022,2 40 0 0,0
17.06.2019 01:00:00 14,6 12,8 14,0 19,4 24,5 20,5 2 1 8 4 ESE 1022,2 40 0 0,0
17.06.2019 00:00:00 15,3 13,1 12,8 20,0 25,1 20,5 6 3 13 7 NW 1021,8 30 0 0,0
16.06.2019 23:00:00 15,9 13,0 13,6 21,1 25,6 20,5 9 5 12 6 WNW 1021,6 30 0 0,0
16.06.2019 22:00:00 16,7 12,2 14,7 22,6 26,1 20,4 6 4 14 7 WNW 1021,6 35 2 0,0
16.06.2019 21:00:00 19,4 12,0 19,4 24,7 26,5 20,4 9 5 20 11 WNW 1021,1 40 20 0,0
16.06.2019 20:00:00 20,3 12,2 22,0 26,1 26,8 20,4 11 6 21 12 WNW 1020,9 45 16 0,0
16.06.2019 19:00:00 20,1 11,6 21,2 27,0 27,0 20,4 13 7 23 12 WNW 1020,4 45 0 0,0
16.06.2019 18:00:00 20,6 11,6 22,7 28,4 27,1 20,4 14 8 24 13 WNW 1020,3 40 0 0,0
16.06.2019 17:00:00 20,8 12,0 22,8 29,4 27,0 20,4 13 7 26 14 W 1020,5 40 0 0,0
16.06.2019 16:00:00 21,7 11,8 25,2 30,4 26,9 20,4 11 6 28 15 W 1020,2 45 5 0,0
16.06.2019 15:00:00 21,4 11,0 24,9 30,5 26,9 20,4 16 8 29 15 WNW 1020,1 45 0 0,0
16.06.2019 14:00:00 21,5 11,3 24,7 31,1 26,7 20,3 16 9 24 13 W 1019,7 40 0 0,0
16.06.2019 13:00:00 21,5 9,4 24,4 31,9 26,1 20,3 12 6 24 13 W 1019,7 45 6 0,0
16.06.2019 12:00:00 22,3 10,5 27,1 34,4 25,3 20,3 10 5 22 12 W 1019,3 40 56 0,0
16.06.2019 11:00:00 20,9 10,7 25,9 31,6 24,5 20,3 12 6 24 13 WNW 1018,9 40 60 0,0
16.06.2019 10:00:00 19,1 12,1 23,6 28,3 24,0 20,3 11 6 20 11 WNW 1018,5 40 60 0,0
16.06.2019 09:00:00 18,1 12,3 22,1 24,9 23,9 20,2 9 5 23 13 NW 1018,3 40 60 0,0
16.06.2019 08:00:00 16,4 12,2 19,4 21,3 24,1 20,2 12 6 28 15 WNW 1017,7 35 56 0,0
16.06.2019 07:00:00 15,9 12,2 16,9 20,6 24,5 20,2 12 7 24 13 WNW 1017,1 40 59 0,0
16.06.2019 06:00:00 15,7 12,1 15,8 19,5 25,0 20,2 13 7 28 15 WNW 1016,7 50 10 0,0
16.06.2019 05:00:00 16,1 11,7 15,7 19,9 25,6 20,1 15 8 27 14 WNW 1016,1 50 0 0,0
16.06.2019 04:00:00 16,9 11,8 16,5 20,8 26,2 20,1 16 9 29 16 WNW 1015,7 50 0 0,0
16.06.2019 03:00:00 18,0 11,9 17,6 21,7 26,9 20,1 17 9 31 17 WNW 1015,2 50 0 0,0
16.06.2019 02:00:00 19,2 12,5 18,7 22,8 27,5 20,1 21 12 36 19 WNW 1015,3 45 0 0,0
16.06.2019 01:00:00 20,3 14,5 19,8 24,0 28,2 20,1 17 9 32 17 WNW 1014,9 40 0 0,0
16.06.2019 00:00:00 21,3 14,3 20,6 25,1 28,9 20,1 14 8 29 16 WNW 1014,0 40 0 0,0
15.06.2019 23:00:00 21,7 14,2 21,0 26,4 29,6 20,0 13 7 26 14 WNW 1013,3 45 0 0,0
15.06.2019 22:00:00 23,3 13,6 22,8 27,9 30,3 20,0 14 8 37 20 WNW 1013,1 45 0 0,0
15.06.2019 21:00:00 24,8 14,2 24,7 30,2 30,9 20,0 22 12 38 21 WNW 1010,9 40 13 0,0
15.06.2019 20:00:00 26,1 15,4 26,8 33,2 31,2 20,0 23 12 45 25 WNW 1010,8 30 47 0,0
15.06.2019 19:00:00 29,6 13,4 31,5 36,3 31,3 20,0 23 13 47 26 WSW 1009,5 30 60 0,0
15.06.2019 18:00:00 29,9 13,8 32,5 37,7 31,1 20,0 26 14 48 26 W 1009,2 25 60 0,0
15.06.2019 17:00:00 31,9 15,7 35,0 40,0 30,5 20,0 24 13 45 24 WSW 1008,5 25 54 0,0
15.06.2019 16:00:00 33,0 15,2 37,0 41,0 29,7 20,0 16 9 31 17 SW 1008,4 25 54 0,0
15.06.2019 15:00:00 32,5 15,9 37,8 41,3 28,7 19,9 19 10 32 17 SW 1008,4 20 60 0,0
15.06.2019 14:00:00 31,4 17,0 36,4 40,0 27,6 19,9 12 6 26 14 S 1008,6 15 60 0,0
15.06.2019 13:00:00 30,1 17,3 35,4 38,3 26,5 19,9 11 6 26 14 S 1008,5 20 60 0,0
15.06.2019 12:00:00 29,3 18,2 34,1 35,5 25,5 19,9 11 6 29 15 SSE 1009,0 20 60 0,0
15.06.2019 11:00:00 27,7 18,1 32,0 32,5 24,7 19,9 16 9 39 21 ESE 1008,9 20 60 0,0
15.06.2019 10:00:00 26,3 17,9 29,7 29,1 24,2 19,9 20 11 42 23 ESE 1009,6 15 60 0,0
15.06.2019 09:00:00 24,2 17,7 26,9 25,6 24,1 19,8 23 12 44 24 E 1009,6 15 60 0,0
15.06.2019 08:00:00 22,6 17,0 24,0 22,8 24,3 19,8 24 13 49 26 E 1010,1 15 46 0,0
15.06.2019 07:00:00 22,0 17,1 22,4 21,7 24,6 19,8 21 12 42 23 E 1011,0 12 9 0,0
15.06.2019 06:00:00 20,6 17,0 19,3 21,8 25,0 19,8 16 9 34 18 ENE 1012,6 10 0 0,8
15.06.2019 05:00:00 22,4 16,4 21,5 23,0 25,3 19,8 6 3 30 16 E 1013,8 12 0 0,0
15.06.2019 04:00:00 22,8 16,0 22,0 23,0 25,7 19,8 17 9 32 17 E 1012,9 20 0 0,0
15.06.2019 03:00:00 23,1 15,7 22,1 23,5 26,1 19,7 16 9 39 21 E 1014,0 25 0 0,0
15.06.2019 02:00:00 23,7 15,4 23,0 24,0 26,5 19,7 17 9 34 18 E 1014,9 25 0 0,0
15.06.2019 01:00:00 23,7 14,7 22,8 24,3 27,0 19,7 15 8 29 16 E 1015,1 25 0 0,0
15.06.2019 00:00:00 23,5 13,5 22,7 24,9 27,6 19,7 12 7 29 16 E 1015,9 25 0 0,0
14.06.2019 23:00:00 24,5 12,7 23,3 25,7 28,2 19,7 13 7 26 14 E 1016,0 25 0 0,0
14.06.2019 22:00:00 25,2 13,0 24,3 27,0 28,8 19,7 14 8 29 16 E 1015,4 25 0 0,0
14.06.2019 21:00:00 25,5 11,7 24,0 28,5 29,3 19,7 10 5 16 9 E 1015,8 25 0 0,0
14.06.2019 20:00:00 26,3 11,0 24,8 31,3 29,7 19,7 8 4 18 10 E 1016,1 25 36 0,0
14.06.2019 19:00:00 28,0 10,8 29,8 34,0 29,7 19,7 8 4 18 10 E 1016,2 40 53 0,0
14.06.2019 18:00:00 29,0 9,5 32,3 36,3 29,5 19,7 8 4 23 12 E 1016,5 40 60 0,0
14.06.2019 17:00:00 28,7 9,9 31,0 36,0 29,3 19,7 9 5 16 9 ESE 1017,1 45 15 0,0
14.06.2019 16:00:00 29,1 8,4 32,4 38,7 28,7 19,7 3 1 21 12 S 1017,3 45 52 0,0
14.06.2019 15:00:00 29,2 8,3 33,5 40,3 27,7 19,7 8 4 21 12 S 1017,6 40 60 0,0
14.06.2019 14:00:00 28,4 8,9 33,6 39,4 26,5 19,7 10 5 21 12 S 1018,2 40 60 0,0
14.06.2019 13:00:00 27,8 6,9 34,1 37,9 25,2 19,7 10 5 21 11 SSE 1018,8 40 60 0,0
14.06.2019 12:00:00 26,7 10,2 33,0 35,6 24,0 19,7 8 4 18 10 SSE 1019,1 35 60 0,0
14.06.2019 11:00:00 25,7 12,9 30,4 32,6 23,0 19,7 8 4 18 10 SSE 1019,0 30 60 0,0
14.06.2019 10:00:00 24,4 13,7 27,8 28,9 22,2 19,7 6 4 14 8 SW 1019,2 30 60 0,0
14.06.2019 09:00:00 22,8 15,3 25,9 24,9 21,8 19,6 5 3 11 6 SSE 1019,2 20 60 0,0
14.06.2019 08:00:00 19,7 14,7 22,4 20,5 21,8 19,6 6 3 14 8 ESE 1019,1 20 60 0,0
14.06.2019 07:00:00 17,3 13,3 18,6 18,8 22,1 19,6 11 6 20 11 ESE 1018,7 20 60 0,0
14.06.2019 06:00:00 16,4 13,0 15,6 17,5 22,5 19,6 14 8 22 12 E 1018,3 20 18 0,0
14.06.2019 05:00:00 15,7 12,7 13,8 17,6 23,0 19,6 10 5 18 10 NE 1017,9 25 0 0,0
14.06.2019 04:00:00 15,3 13,4 13,0 18,2 23,5 19,6 7 4 23 12 NNE 1017,4 25 0 0,0
14.06.2019 03:00:00 17,2 12,9 14,5 19,1 24,0 19,6 6 3 12 6 SSE 1017,2 35 0 0,0
14.06.2019 02:00:00 18,9 12,7 16,5 19,8 24,6 19,6 9 5 16 9 ESE 1016,7 40 0 0,0
14.06.2019 01:00:00 19,5 12,6 17,5 20,5 25,2 19,6 10 5 16 9 E 1016,8 40 0 0,0
14.06.2019 00:00:00 19,4 12,2 17,1 21,4 25,9 19,6 9 5 16 9 E 1016,2 40 0 0,0
13.06.2019 23:00:00 20,0 11,5 17,1 22,4 26,7 19,6 8 4 16 9 E 1015,8 40 0 0,0
13.06.2019 22:00:00 20,4 10,2 17,4 24,0 27,4 19,6 8 5 16 8 ENE 1015,2 45 0 0,0
13.06.2019 21:00:00 20,7 10,3 18,3 26,6 27,9 19,6 6 4 11 6 NE 1014,8 50 32 0,0
13.06.2019 20:00:00 23,4 11,5 24,4 30,4 28,1 19,6 6 3 11 6 ENE 1014,1 50 60 0,0
13.06.2019 19:00:00 25,2 9,6 27,3 33,1 28,0 19,6 4 2 9 5 S 1014,1 50 59 0,0
13.06.2019 18:00:00 24,4 8,0 28,2 35,0 27,5 19,6 3 1 9 5 E 1014,3 50 60 0,0
13.06.2019 17:00:00 24,5 7,4 29,4 36,3 26,8 19,6 7 4 18 10 WSW 1014,4 50 60 0,0
13.06.2019 16:00:00 23,7 9,3 28,4 36,5 25,8 19,6 6 4 17 9 WSW 1014,8 45 60 0,0
13.06.2019 15:00:00 23,0 9,1 29,1 35,7 24,6 19,6 6 4 16 9 WNW 1015,0 45 60 0,0
13.06.2019 14:00:00 22,2 9,8 29,8 33,9 23,5 19,5 5 3 18 10 NNW 1015,1 45 60 0,0
13.06.2019 13:00:00 20,8 9,1 27,3 30,2 22,7 19,5 4 2 18 10 N 1015,5 45 58 0,0
13.06.2019 12:00:00 18,7 12,9 20,9 24,0 22,4 19,5 8 4 16 8 WNW 1015,5 45 2 0,0
13.06.2019 11:00:00 18,9 13,1 21,9 25,2 22,0 19,5 8 4 21 12 W 1015,9 35 33 0,0
13.06.2019 10:00:00 17,9 14,2 21,4 22,7 21,8 19,5 10 5 18 10 W 1015,6 20 21 0,0
13.06.2019 09:00:00 16,5 14,8 17,1 19,7 21,8 19,5 5 3 18 10 WSW 1015,6 13 0 0,1
13.06.2019 08:00:00 16,4 14,2 16,9 19,2 22,0 19,5 10 5 16 8 WSW 1015,5 20 7 0,0
13.06.2019 07:00:00 16,6 14,2 18,5 19,2 22,2 19,4 8 4 14 8 W 1014,6 15 42 0,0
13.06.2019 06:00:00 15,2 14,2 14,7 17,8 22,6 19,4 7 4 16 9 W 1014,4 15 0 0,0
13.06.2019 05:00:00 15,6 14,5 15,0 18,4 23,0 19,4 5 3 16 9 WNW 1014,0 20 0 0,0
13.06.2019 04:00:00 16,2 14,7 15,8 18,5 23,5 19,4 11 6 29 16 WNW 1013,2 20 0 0,0
13.06.2019 03:00:00 16,7 15,2 16,5 19,1 24,0 19,4 18 10 31 17 W 1013,1 20 0 0,0
13.06.2019 02:00:00 16,6 15,1 16,4 19,6 24,6 19,4 11 6 18 10 W 1012,4 35 0 0,0
13.06.2019 01:00:00 16,6 15,6 16,5 20,2 25,3 19,3 9 5 22 12 WSW 1012,6 20 0 0,6
13.06.2019 00:00:00 17,0 15,1 17,1 20,6 26,0 19,3 11 6 23 13 W 1011,5 40 0 0,0
12.06.2019 23:00:00 17,9 14,7 17,5 21,7 26,7 19,3 9 5 22 12 W 1011,1 40 0 0,0
12.06.2019 22:00:00 17,7 15,2 17,2 22,9 27,6 19,3 10 5 33 18 WNW 1009,9 40 0 0,3
12.06.2019 21:00:00 18,7 15,4 18,8 24,4 28,4 19,3 19 11 45 25 WNW 1009,3 30 0 0,0
12.06.2019 20:00:00 20,2 16,0 20,7 26,9 29,1 19,3 26 14 58 31 WNW 1008,0 35 0 0,0
12.06.2019 19:00:00 25,8 16,2 26,2 30,7 29,4 19,3 35 19 59 32 W 1006,5 20 0 0,0
12.06.2019 18:00:00 30,0 15,7 30,1 33,7 29,4 19,3 6 4 21 12 S 1004,4 25 13 0,0
12.06.2019 17:00:00 32,9 13,0 34,3 38,2 28,8 19,3 11 6 27 15 S 1004,3 30 60 0,0
12.06.2019 16:00:00 33,0 14,6 36,0 38,8 27,9 19,3 8 5 24 13 SSE 1004,4 50 59 0,0
12.06.2019 15:00:00 32,2 15,3 36,1 37,9 26,9 19,3 12 7 34 19 SE 1005,2 45 60 0,0
12.06.2019 14:00:00 31,8 15,3 36,6 36,4 25,9 19,3 14 7 24 13 SE 1005,6 40 60 0,0
12.06.2019 13:00:00 30,2 15,0 34,8 34,3 25,0 19,3 8 4 19 11 S 1006,4 30 60 0,0
12.06.2019 12:00:00 28,7 17,7 33,6 32,8 24,1 19,2 4 2 17 9 SSE 1007,1 30 60 0,0
12.06.2019 11:00:00 27,2 18,6 31,1 30,5 23,3 19,2 8 4 19 10 SE 1007,3 15 60 0,0
12.06.2019 10:00:00 25,4 18,0 29,1 27,9 22,7 19,2 10 5 16 9 ESE 1007,5 20 60 0,0
12.06.2019 09:00:00 23,7 17,4 27,5 25,0 22,3 19,2 7 4 23 12 E 1007,7 20 60 0,0
12.06.2019 08:00:00 21,8 17,0 24,1 21,6 22,4 19,2 12 7 25 14 ENE 1008,1 30 51 0,0
12.06.2019 07:00:00 20,1 15,6 20,8 20,2 22,6 19,2 11 6 26 14 NE 1008,4 40 23 0,0
12.06.2019 06:00:00 18,9 15,1 18,6 19,1 23,0 19,2 8 5 29 15 NE 1008,7 40 0 0,0
12.06.2019 05:00:00 19,0 15,1 18,4 19,3 23,4 19,1 13 7 26 14 NNE 1008,8 45 0 0,0
12.06.2019 04:00:00 19,6 15,6 19,1 20,1 23,9 19,1 8 4 25 13 NNW 1009,1 45 0 0,0
12.06.2019 03:00:00 19,6 15,9 19,2 20,8 24,3 19,1 8 4 21 12 NE 1008,9 45 0 0,0
12.06.2019 02:00:00 20,5 16,2 20,3 21,5 24,8 19,1 9 5 29 16 N 1008,9 30 0 0,0
12.06.2019 01:00:00 21,5 17,2 21,2 22,3 25,2 19,1 24 13 47 25 WNW 1009,4 30 0 0,0
12.06.2019 00:00:00 23,9 19,5 23,2 23,1 25,7 19,1 13 7 24 13 ENE 1008,3 25 0 0,0
11.06.2019 23:00:00 25,0 19,2 24,2 23,8 26,2 19,1 12 7 25 14 E 1007,8 25 0 0,0
11.06.2019 22:00:00 25,1 19,5 24,4 24,6 26,8 19,1 11 6 27 14 ENE 1008,8 20 0 0,0
11.06.2019 21:00:00 26,1 18,9 25,3 25,9 27,3 19,1 9 5 23 12 NE 1008,5 20 0 0,0
11.06.2019 20:00:00 25,7 19,6 24,9 27,8 27,6 19,1 6 4 14 8 NE 1009,0 25 0 0,0

tt = temperature
td = dewpoint
tt 5cm = temperature 5cm
tt -5cm = temperature -5cm
tt -20cm = temperature -20cm
tt -100cm = temperature -100cm
ff = wind speed
fx = gusts
dd = wind direction
ppp = reduced air pressure
vv = visibility
sd = sunshine duration
rr = precipitation

Next stations